Flag for Germany Weather past 2 weeks in Osterholz-Scharmbeck, Lower Saxony, Germany

Now
68 °F

Passing clouds.


Feels Like: 68 °F
Forecast: 56 / 72 °F
Wind: 5 mph from East

Location: Bremen

Current Time: Sep 18, 2014 at 8:37:00 PM

Latest Report: Sep 18, 2014 at 8:00 PM


Visibility: 16 mi

Pressure: 29.89 "Hg

Humidity: 70%

Dew point: 58 °F

Location of Osterholz-ScharmbeckLocation

Historic Weather in Osterholz-Scharmbeck — Graph

°F

Osterholz-Scharmbeck temperature yesterday

Maximum temperature yesterday: 76 °F (at 4:00 PM)
Minimum temperature yesterday: 58 °F (at 6:00 AM)
Average temperature yesterday: 66 °F

Past Weeks' High & Low Weather Summary

 TemperatureHumidityPressure
High79 °F (Sep 5, 3:00 PM)100% (Sep 12, 7:00 AM)30.27 "Hg (Sep 12, 7:00 AM)
Low51 °F (Sep 8, 4:00 AM)48% (Sep 8, 3:00 PM)29.87 "Hg (Sep 6, 6:00 PM)
Average63 °F80%30.06 "Hg
* Reported Sep 3 7:00 PM — Sep 18 7:00 PM, Osterholz-Scharmbeck, Weather by CustomWeather, © 2014

Note: Actual official high and low records may vary slightly from our data, if they occured in-between our weather recording intervals... More about our weather records

Advertising

Osterholz-Scharmbeck weather history for previous 24 hours

 ConditionsComfort  
Time TempWeatherWind HumidityBarometerVisibility
7:00 PM
Sep 18
72 °FPassing clouds.3 mph60%29.88 "Hg17 mi
6:00 PM74 °FScattered clouds.5 mph54%29.88 "Hg19 mi
5:00 PM76 °FScattered clouds.3 mph50%29.88 "Hg19 mi
4:00 PM77 °FScattered clouds.5 mph50%29.88 "Hg19 mi
3:00 PM76 °FPassing clouds.6 mph52%29.88 "Hg19 mi
2:00 PM74 °FPassing clouds.6 mph55%29.89 "Hg19 mi
1:00 PM73 °FSunny.5 mph57%29.90 "Hg19 mi
12:00 PM71 °FSunny.5 mph65%29.91 "Hg19 mi
11:00 AM66 °FSunny.5 mph74%29.92 "Hg12 mi
10:00 AM63 °FSunny.6 mph81%29.92 "Hg8 mi
9:00 AM60 °FSunny.3 mph90%29.92 "Hg6 mi
8:00 AM57 °FFog.3 mph94%29.92 "Hg4 mi
7:00 AM55 °FFog.3 mph95%29.91 "Hg4 mi
6:00 AM56 °FClear.3 mph94%29.91 "Hg6 mi
5:00 AM56 °FClear.3 mph94%29.92 "Hg7 mi
4:00 AM57 °FClear.3 mph93%29.93 "Hg7 mi
3:00 AM58 °FClear.3 mph92%29.93 "Hg7 mi
2:00 AM59 °FClear.3 mph90%29.93 "Hg8 mi
1:00 AM60 °FClear.5 mph86%29.93 "Hg9 mi
12:00 AM62 °FClear.3 mph81%29.94 "Hg9 mi
10:00 PM
Sep 17
66 °FClear.5 mph72%29.95 "Hg12 mi
9:00 PM66 °FClear.5 mph69%29.95 "Hg16 mi
8:00 PM68 °FPassing clouds.5 mph65%29.94 "Hg14 mi
Weather by CustomWeather, © 2014

See weather overviewHow to use our weather pages